www.pogodaiklimat.ru

Погода и климат >> Архив погоды >> Россия >> Белгородская область >> Новый Оскол


ПОГОДА в Новом Осколе

  • Прогноз погоды в Новом Осколе
  • Монитор погоды в Новом Осколе

АРХИВ ПОГОДЫ в Новом Осколе

Время (UTC), дата Ветер
(напр.,м/с)
 
Видим.   Явления Облачность Т
(С)
Тd
(С)
f
(%)
Тe
(С)
Тes
(С)
Комфортность P
(гПа)
Po
(гПа)
Тmin
(С)
Tmax
(С)
R
(мм)
R24
(мм)
S
(см)
00 18.08 СЗ 1 4000 м дымка 8/4 300 м
[St Ac As]
+16.2 +15.1 93 +17 +17 1010.1 993.6
03 18.08 ЮЗ 1 4000 м дымка 10/10 300 м
[St]
+16.0 +15.1 94 +17 +17 1010.3 993.8 +15.4
06 18.08 Ю 1 2000 м дымка 10/10 300 м
[St]
+16.7 +15.5 93 +18 +18 1010.9 994.5 +15.4
09 18.08 В 2 10 км 4/4 600 м
[Sc diur, vesp]
+19.8 +16.9 83 +23 +31 комфорт 1011.3 995.1
12 18.08 ЮВ 3 20 км 6/6 600 м
[Sc]
+24.4 +13.4 50 +27 +30 жарко 1011.1 995.2
15 18.08 З 2 10 км 6/3 600 м
[Sc diur, vesp Ac trans]
+24.0 +15.8 60 +27 +28 жарко 1012.0 996.0
18 18.08 З 1 10 км 6/3 600 м
[Sc Ac trans]
+18.5 +14.1 76 +20 +20 1014.7 998.4 +25.5
21 18.08 штиль 0 10 км ясно +15.0 +12.8 87 +15 +15 1016.2 999.6
00 19.08 З 1 4000 м дымка 4/0
[Cc]
+13.6 +12.3 92 +14 +14 1016.7 1000.0
03 19.08 С 1 4000 м дымка 10/0
[Cs]
+12.2 +11.2 94 +12 +12 1018.2 1001.3 +11.8
06 19.08 СЗ 2 10 км {туман} 3/0
[Ci sp]
+17.8 +14.7 82 +18 +24 1018.3 1001.8 +11.8
09 19.08 СЗ 2 20 км 4/0
[Ci]
+23.1 +13.9 56 +27 +39 душно 1018.3 1002.1
12 19.08 З 2 20 км 5/4 600 м
[Cu hum Ac trans]
+26.0 +13.2 45 +28 +33 жарко 1018.3 1002.2
15 19.08 СЗ 2 20 км 3/3 600 м
[Sc diur, vesp]
+26.5 +13.2 44 +28 +29 жарко 1018.2 1002.2
18 19.08 штиль 0 10 км ясно +20.7 +15.1 70 +23 +23 комфорт 1019.8 1003.5 +27.3
21 19.08 штиль 0 10 км ясно +16.7 +14.1 85 +17 +17 1020.4 1003.9
00 20.08 штиль 0 10 км ясно +15.0 +13.5 91 +15 +15 1021.1 1004.5
03 20.08 С 1 4000 м дымка ясно +13.4 +12.5 94 +13 +14 1022.3 1005.5 +13.2
06 20.08 СЗ 2 10 км ясно +20.5 +15.5 73 +24 +30 комфорт 1022.9 1006.5 +13.2
09 20.08 СЗ 2 10 км 3/3 600 м
[Cu hum]
+27.5 +13.1 41 +29 +38 жарко 1021.6 1005.6
12 20.08 С 3 20 км 3/3 600 м
[Cu hum]
+29.5 +10.6 31 +30 +35 жарко 1020.7 1004.8
15 20.08 С 3 20 км 3/0
[Ac cuf]
+29.1 +12.6 36 +30 +31 жарко 1010.7 1004.8
18 20.08 штиль 0 10 км ясно +21.2 +13.2 60 +24 +24 комфорт 1022.4 1006.0 +30.4
21 20.08 штиль 0 10 км ясно +17.6 +13.3 76 +18 +18 1023.0 1006.4
00 21.08 штиль 0 10 км ясно +15.0 +12.4 84 +15 +15 1023.4 1006.7
03 21.08 С 1 4000 м дымка ясно +13.6 +12.5 93 +14 +14 1024.0 1007.2 +13.3
06 21.08 СВ 2 10 км ясно +21.4 +15.0 67 +25 +31 комфорт 1023.6 1007.2 +13.3
09 21.08 СВ 3 20 км ясно +26.8 +13.4 44 +29 +40 жарко 1022.3 1006.3
12 21.08 СВ 3 20 км ясно +29.6 +12.0 34 +30 +38 жарко 1020.8 1004.9
15 21.08 СВ 3 20 км ясно +28.8 +13.5 39 +30 +31 жарко 1020.2 1004.3
18 21.08 СВ 1 10 км ясно +23.2 +13.6 55 +27 +27 душно 1020.8 1004.6 +30.5
21 21.08 штиль 0 10 км ясно +17.4 +13.9 80 +17 +17 1021.1 1004.6
00 22.08 С 1 10 км ясно +16.4 +13.9 85 +17 +17 1021.1 1004.6
03 22.08 С 1 4000 м дымка ясно +14.6 +13.5 93 +15 +15 1021.1 1004.5 +14.5
06 22.08 С 1 10 км 3/0
[Ci fib]
+22.2 +15.8 67 +26 +33 душно 1020.6 1004.4 +14.5
09 22.08 СВ 3 20 км 5/0
[Ci fib]
+29.4 +15.7 43 +32 +42 душно 1019.6 1003.7
12 22.08 СВ 2 20 км 8/3 600 м
[Cu hum Cs]
+31.3 +15.8 39 +34 +39 душно 1018.9 1003.1
15 22.08 СВ 2 20 км 6/3 600 м
[Sc diur, vesp Cs]
+29.7 +15.7 43 +33 +33 душно 1019.0 1003.1
18 22.08 СВ 1 10 км 6/3 600 м
[Sc diur, vesp Cs]
+24.5 +14.8 55 +27 +27 жарко 1020.1 1004.0 +32.1
21 22.08 С 1 10 км 8/0
[Cs]
+21.4 +14.8 66 +24 +24 комфорт 1020.8 1004.5
00 23.08 СЗ 1 10 км 8/0
[Cs]
+19.2 +14.2 73 +22 +22 комфорт 1021.7 1005.3
03 23.08 С 1 10 км 6/3 600 м
[Sc Ci fib]
+18.4 +16.8 90 +20 +20 1022.6 1006.1 +18.3
06 23.08 С 4 20 км 6/3 600 м
[Sc Ci fib]
+20.9 +15.8 73 +24 +27 комфорт 1022.9 1006.5 +18.3
09 23.08 С 3 20 км 6/3 600 м
[Sc Ci fib]
+26.7 +16.2 53 +30 +37 душно 1021.8 1005.8
12 23.08 С 4 20 км 8/5 600 м
[Cu med, cong Ci fib]
+29.8 +14.8 40 +32 +35 душно 1021.7 1005.8
15 23.08 С 5
{10}
20 км 4/3 600 м
[Sc diur, vesp Ci]
+27.7 +14.7 45 +30 +31 жарко 1021.9 1005.9
18 23.08 С 2 10 км 3/3 600 м
[Sc diur, vesp]
+23.3 +15.5 62 +28 +28 душно 1023.1 1006.8 +30.4
21 23.08 С 2 10 км ясно +20.4 +14.6 69 +24 +24 комфорт 1023.3 1006.9
00 24.08 С 2 10 км ясно +17.6 +13.7 78 +18 +18 1023.7 1007.1
03 24.08 СЗ 1 10 км 5/3 600 м
[Sc Ci fib]
+16.0 +12.7 81 +17 +17 1024.2 1007.5 +15.8
06 24.08 С 2 20 км 5/0
[Cs]
+21.1 +13.2 61 +23 +29 комфорт 1024.0 1007.6 +15.8
09 24.08 С 3 20 км 5/0
[Cs]
+26.5 +12.6 42 +28 +37 жарко 1022.7 1006.7
12 24.08 С 3 20 км 5/1 600 м
[Cu hum Cs]
+29.0 +12.1 35 +30 +36 жарко 1021.9 1006.0
18 24.08 СЗ 1 10 км ясно +20.5 +11.7 57 +24 +24 комфорт 1022.8 1006.4 +29.3
21 24.08 СЗ 1 10 км ясно +17.5 +10.2 62 +19 +19 1023.0 1006.4

 

Местоположение метеостанции Новый Оскол (Белгородская область, Россия): широта 50.75 долгота 37.87 высота над уровнем моря 140 м.

В архиве по умолчанию представлена погода в Новом Осколе за последнюю неделю. Архивные данные за месяц целиком и за предыдущие месяцы, начиная с января 2011 года, Вы можете получить, выбрав интересующий диапазон дат из раскрывающегося списка и нажав кнопку "Ввод!".


*Определитесь, кто Вы:
робот инопланетянин человек

Внимание! Время в таблицах - всемирное. Для получения местного времени необходимо прибавить поправку, которая равна 3 ч.

Смотрите также архив погоды в соседних городах и на ближайших метеорологических станциях:

Погода в Богородицком (Белгородская область, Россия) (59 км)
Погода в Валуйках (Белгородская область, Россия) (61 км)
Погода в Старом Осколе (Белгородская область, Россия) (61 км)
Погода в Великом Бурлуке (Харьковская область, Украина) (83 км)
Погода в Новопскове (Луганская область, Украина) (84 км)
Погода в Белгороде (Белгородская область, Россия) (92 км)
Погода в Нижнедевицке (Воронежская область, Россия) (96 км)
Погода в Троицком (Луганская область, Украина) (96 км)
Погода в Тиме (Курская область, Россия) (110 км)
Погода в Лисках (Воронежская область, Россия) (118 км)

Пояснения к столбцам:

Ветер - указаны скорость ветра в м/с - средняя за 10 мин, порывы в срок и между сроками (в фигурных скобках) и направление, откуда дует ветер: С - северный, СВ - северо-восточный, В - восточный, ЮВ - юго-восточный, Ю - южный, ЮЗ - юго-западный, З - западный, СЗ - северо-западный.
Видимость - горизонтальная дальность видимости в метрах или километрах. При видимости от 1 до 10 км при отсутствии осадков обычно наблюдается дымка, при ухудшении видимости до 1 км и менее - туман. В сухую погоду видимость может ухудшаться дымом, пылью или мглою.
Явления - указаны атмосферные явления, наблюдавшиеся в срок или в последний час перед сроком; фигурными скобками обозначены явления, наблюдавшиеся между сроками (за 1-3 часа до срока); квадратными скобками обозначены град или гололедные отложения с указанием их диаметра в мм.
Облачность - указаны через наклонную черту общая и нижняя облачность в баллах и высота нижней границы облаков в метрах; квадратными скобками обозначены формы облаков: Ci - перистые, Cs - перисто-слоистые, Cc - перисто-кучевые, Ac - высококучевые, As - высокослоистые, Sc - слоисто-кучевые, Ns - слоисто-дождевые, Cu - кучевые, Cb - кучево-дождевые. Подробнее классификацию облаков см. в Атласе облаков (PDF).
T - Температура воздуха - температура, измеренная на высоте 2 м над землей.
Td - Температура точки росы - температура, при понижении до которой содержащийся в воздухе водяной пар достигнет насыщения.
f - Относительная влажность воздуха - влажноcть воздуха, измеренная на высоте 2 м над землей.
Te - Эффективная температура - температура, которую ощущает одетый по сезону человек в тени. Характеристика душности погоды. При расчете учитывается влияние влажности воздуха и скорости ветра на теплоощущения человека.
Tes - Эффективная температура на солнце - температура, которую ощущает человек, с поправкой на солнечный нагрев. Характеристика знойности погоды. Зависит от высоты солнца над горизонтом, облачности и скорости ветра. Ночью, в пасмурную погоду, а также при ветре 12 м/с и более поправка равна нулю.
P - Атмосферное давление - приведенное к уровню моря атмосферное давление.
Po - Атмосферное давление - измеренное на уровне метеостанции атмосферное давление.
Tmin - Минимальная температура - минимум температуры воздуха на высоте 2 м над землей.
Tmax - Максимальная температура - максимум температуры воздуха на высоте 2 м над землей.
R - Количество осадков - Количество выпавших осадков за период времени, мм. При наведении курсора мыши на число - период времени, за который выпало указанное количество осадков.
R24 - Количество осадков - Количество выпавших осадков за 24 часа, мм.
S - Снежный покров - Высота снежного покрова, см. При наведении курсора мыши на число - состояние снежного покрова и степень покрытия местности в баллах.